Regional Weather Roundup
Issued by NWS

Home | Current Version | Previous Version | Text Only | Print | Product List | Glossary On
Versions: 1 2 3 4 5 6 7 8 9 10 11 12 13 14 15 16 17 18 19 20 21 22 23 24 25 26 27 28 29 30 31 32 33 34 35 36 37 38 39 40 41 42 43 44 45 46 47 48 49 50
000
ASUS43 KMPX 290610
RWRMN
WEATHER ROUNDUP FOR MINNESOTA
NATIONAL WEATHER SERVICE TWIN CITIES/CHANHASSEN MN
100 AM CDT SAT AUG 29 2015


NOTE: "FAIR" INDICATES FEW OR NO CLOUDS BELOW 12,000 FEET WITH NO
SIGNIFICANT WEATHER AND/OR OBSTRUCTIONS TO VISIBILITY. N/A MEANS
CURRENT SKY AND/OR WEATHER CONDITIONS ARE NOT AVAILABLE.

MNZ060>063-068>070-290700-
   Twin Cities Metro

CITY           SKY/WX    TMP DP  RH WIND       PRES   REMARKS
TWIN CITIES    FAIR      60  56  86 NE6       30.04S
6HR MIN TEMP:  60; 6HR MAX TEMP:  68;

ST PAUL        FAIR      59  56  89 E3        30.05S
CRYSTAL        FAIR      58  55  90 E3        30.03S
BLAINE         FAIR      57  57 100 CALM      30.04S
LAKEVILLE      FAIR      54  54 100 CALM      30.04R
EDEN PRAIRIE   FAIR      59  55  87 E3        30.02F
6HR MIN TEMP:  59; 6HR MAX TEMP:  69;

SOUTH ST PAUL  FAIR      59  56  88 NE3       30.05R
LAKE ELMO      FAIR      55  54  94 E3        30.06S
$$
MNZ001>005-007-008-013>017-022>024-027-028-290700-
   Northwest Minnesota

CITY           SKY/WX    TMP DP  RH WIND       PRES   REMARKS
BEMIDJI        FAIR      67  63  87 SW9       29.95S
HALLOCK        FOG       63  63 100 SE3       29.87S VSB 1/2
ROSEAU         FAIR      64  61  88 CALM      29.90R
WARROAD        FAIR      66  63  88 SW5       29.90S
THIEF RVR FALL FAIR     N/A N/A N/A S8        29.90S
CROOKSTON      FAIR      68  64  88 S9        29.91S
FOSSTON        FAIR      64  61  88 S12G17    29.95S
DETROIT LAKES  FAIR      66  61  82 S10       29.98F
MOORHEAD       FAIR      66  63  88 S10       29.95R
PARK RAPIDS    FAIR      64  60  87 S8        29.98F
MAHNOMEN       FAIR      64  62  91 S9        29.95S
$$
MNZ006-009>011-018-025>026-290700-
   North Central Minnesota

CITY           SKY/WX    TMP DP  RH WIND       PRES   REMARKS
BAUDETTE       MOCLDY    69  66  90 W7        29.91R
FLAG ISLAND    FAIR      68  66  94 CALM      29.88R
INTL FALLS     MOCLDY    69  65  86 SW7       29.93R
6HR MIN TEMP:  69; 6HR MAX TEMP:  76;

WASKISH        MOCLDY    68  64  88 S5        29.93R
BIG FORK       FAIR      66  63  88 SW8       29.96R
LONGVILLE      MOCLDY    64  61  88 S6        29.98S
GRAND RAPIDS     N/A     64  59  82 S9G20     29.98S
CRANE LAKE     CLOUDY    61  59  94 NE2       30.01R
ORR            CLOUDY    68  61  77 CALM      29.93R
COOK           MOCLDY    68  63  83 SW9       29.97R
WALKER         FAIR      65  60  86 SW10G18   29.96S
$$
MNZ012-019>021-037-290700-
   Northeast Minnesota

CITY           SKY/WX    TMP DP  RH WIND       PRES   REMARKS
DULUTH         FAIR      62  59  90 SW8       30.02R
6HR MIN TEMP:  62; 6HR MAX TEMP:  74;

ELY            LGT RAIN  63  57  82 SE7       30.00S
HIBBING        FAIR      66  61  84 SW7       29.99R
EVELETH        FAIR      63  61  94 SW8       30.00S
DULUTH HARBOR  FAIR      64  61  88 SW9       30.02R
TWO HARBORS    FAIR      66  63  88 SW5       30.00R
SILVER BAY     CLOUDY    66  61  82 CALM      29.99R
GRAND MARAIS     N/A     57  56  96 CALM      30.01R
G MARAIS ARPRT RAIN      57  54  88 NE12      30.03F
$$
MNZ029>031-032-039>041-046>048-054>057-064-290700-
   West Central Minnesota

CITY           SKY/WX    TMP DP  RH WIND       PRES   REMARKS
FERGUS FALLS   FAIR      63  63 100 S9        29.98S
WHEATON        FAIR      61  57  88 SE9       30.00S
MORRIS         FAIR      61  57  88 S7        30.01R
ALEXANDRIA     FAIR      61  59  93 S9        30.03S
ELBOW LAKE     FAIR      60  59  96 S8        30.00S
WADENA         FAIR      61  61 100 S5        29.99F
GLENWOOD       FAIR      57  55  94 S6        30.03F
APPLETON       FAIR      63  57  82 S7        30.01S
BENSON         FAIR      57  55  94 S3        30.03S
ORTONVILLE     FAIR      61  57  88 S6        30.01R
MADISON        FAIR      57  57 100 S6        30.02S
WILLMAR        FAIR      57  55  94 CALM      30.05S
$$
MNZ033>034-036-042>043-049>051-058-059-290700-
   Central Minnesota

CITY           SKY/WX    TMP DP  RH WIND       PRES   REMARKS
ST CLOUD       FAIR      55  55 100 S3        30.03S
6HR MIN TEMP:  55; 6HR MAX TEMP:  70;

SAUK CENTRE    FAIR      57  56  97 S5        30.04S
PAYNESVILLE    FAIR      59  56  89 SE3       30.05R
AITKIN         FAIR      64  57  77 S9        30.00S
PINE RIVER     FAIR      63  61  94 S3        30.02F
BRAINERD       FAIR      61  59  93 S9        30.01F
STAPLES        FAIR      61  57  88 S8        30.00S
LONG PRAIRIE   CLOUDY    57  55  94 S6        30.02F
LITTLE FALLS   FAIR      57  54  88 SE3       30.03S
LITCHFIELD     FAIR      57  57 100 CALM      30.05R
BUFFALO        FAIR      56  53  91 CALM      30.05S
MAPLE LAKE     FAIR      58  56  96 CALM      30.05S
$$
MNZ037-044-045-052-053-290700-
   East Central Minnesota

CITY           SKY/WX    TMP DP  RH WIND       PRES   REMARKS
PRINCETON      FAIR      59  57  94 CALM      30.04S FOG
MORA           FAIR      55  54  94 CALM      30.05F
CAMBRIDGE      FAIR      61  52  72 SE5       30.02F
RUSH CITY      FAIR      56  54  93 S3        30.04F
MOOSE LAKE     FAIR      61  55  82 SW5       30.01R
HINCKLEY       FAIR      57  55  94 SW3       30.03F
CLOQUET        FAIR      63  57  82 S5        30.02R
MCGREGOR       FAIR      63  61  94 S6        30.01R
$$
MNZ071>073-080-081-089-090-097-098-290700-
   Southwest Minnesota

CITY           SKY/WX    TMP DP  RH WIND       PRES   REMARKS
MONTEVIDEO     FAIR      57  55  94 SW5       30.04S
GRANITE FALLS  FAIR      54  53  97 CALM      30.05S
CANBY          FAIR      59  56  91 S3        30.04S
MARSHALL       FAIR      55  50  82 S3        30.04S
REDWOOD FALLS  FAIR      56  55  97 CALM      30.03S
OLIVIA         FAIR      54  52  94 SE3       30.03S
PIPESTONE      FAIR      55  54  94 CALM      30.04S
WINDOM         MOCLDY    55  54  94 CALM      30.03S
WORTHINGTON    FAIR      57  54  88 N5        30.03S
JACKSON        CLOUDY    59  55  88 NE5       30.03S
TRACY          FAIR      57  55  94 CALM      30.04S
SLAYTON        FAIR      51  51 100 CALM      30.05S
$$
MNZ065>067-074>077-082>085-091>093-290700-
   South Central Minnesota

CITY           SKY/WX    TMP DP  RH WIND       PRES   REMARKS
MANKATO        FAIR      55  52  88 N6        30.03R
NEW ULM        FAIR      55  55 100 NE2       30.03S
ST JAMES       CLOUDY    57  57 100 N3        30.04R
FAIRMONT       CLOUDY    59  52  77 CALM      30.00S
GLENCOE        FAIR      55  55  99 CALM      30.03S
FARIBAULT      FAIR      55  54  94 N5        30.04R
OWATONNA       MOCLDY    55  54  94 NE5       30.02R
WASECA         CLOUDY    55  54  94 MISG      30.04R
ALBERT LEA     CLOUDY    59  57  94 NE6       29.99F
$$
MNZ078>079-086>088-094>096-290700-
   Southeast Minnesota

CITY           SKY/WX    TMP DP  RH WIND       PRES   REMARKS
ROCHESTER      CLOUDY    58  56  93 NE7       30.02R
6HR MIN TEMP:  57; 6HR MAX TEMP:  59; 6HR PCP: TRACE;

RED WING       FAIR      57  55  94 E3        30.03R
STANTON        FAIR      55  53  93 CALM      30.03R
DODGE CENTER   CLOUDY    55  55 100 NE5       30.02R FOG
WINONA         MOCLDY    59  55  88 CALM      30.02S
AUSTIN         CLOUDY    61  57  88 NE5       29.99S
PRESTON        CLOUDY    58  56  95 E8        30.00F
$$
ABBREVIATIONS USED IN REMARKS
   TC - TEMPERATURES IN CELSIUS
  WCI - WIND CHILL INDEX
   HX - HEAT INDEX
  VSB - VISIBILITY
$$



USA.gov is the U.S. government's official web portal to all federal, state and local government web resources and services.